Regional Weather Roundup
Issued by NWS Newport/Morehead, NC

Current Version | Previous Version | Graphics & Text | Print | Product List | Glossary Off
Versions: 1 2 3 4 5 6 7 8 9 10 11 12 13 14 15 16 17 18 19 20 21 22 23 24 25 26 27 28 29 30 31 32 33 34 35 36 37 38 39 40 41 42 43 44 45 46 47 48 49 50

000
ASUS42 KMHX 270910
RWRMHX
WEATHER ROUNDUP FOR EASTERN NORTH CAROLINA
NATIONAL WEATHER SERVICE NEWPORT/MOREHEAD CITY NC
400 AM EST THU NOV 27 2014

NOTE: "FAIR" INDICATES FEW OR NO CLOUDS BELOW 12,000 FEET
WITH NO SIGNIFICANT WEATHER AND/OR OBSTRUCTIONS TO VISIBILITY

NCZ015>017-031-032-045>047-102-103-271000-
NORTH COAST

CITY           SKY/WX    TMP DP  RH WIND       PRES   REMARKS
EDENTON          N/A     39  38  97 SW6       30.07S
ELIZABETH CITY MOCLDY    37  33  85 SW6       30.07S
KITTY HAWK     SUNNY     40  37  90 CALM      30.05F
MANTEO         PTCLDY    40  37  87 CALM      30.07F

$$

NCZ045>047-081-094-103-104-271000-
CENTRAL COAST

CITY           SKY/WX    TMP DP  RH WIND       PRES   REMARKS
FRISCO         CLOUDY    42  40  92 NW8       30.09F
SWANQUARTER      N/A     39 N/A N/A NE1       30.03F

$$

NCZ095-097-098-100-101-271000-
SOUTHERN COAST

CITY           SKY/WX    TMP DP  RH WIND       PRES   REMARKS
BEAUFORT       PTCLDY    39  39 100 CALM      30.10S
CEDAR ISLAND     N/A     41 N/A N/A W1        30.12S
JACKSONVILLE   CLEAR     39  37  92 CALM      30.09S
PINEY ISLAND   MOSUNNY   43  37  79 CALM      30.08F
WILMINGTON     FOG       37  37 100 CALM      30.08F VSB 1


$$

NCZ011>013-027>030-043-044-078>080-089-090>093-098-271000-
COASTAL PLAIN

CITY           SKY/WX    TMP DP  RH WIND       PRES   REMARKS
AHOSKIE        CLOUDY    37  36  96 CALM      30.08S
CLINTON        CLEAR     38  38 100 CALM      30.07F
ELIZABETHTOWN  FOG       38  38 100 SE3       30.06F VSB 1/2
GOLDSBORO      MOCLDY    38  38  98 CALM      30.05F
GREENVILLE     PTCLDY    37  37 100 S3        30.09F
HAVELOCK       PTCLDY    39  37  92 CALM      30.11R
KENANSVILLE    PTCLDY    37  37 100 CALM      30.08F FOG
KINSTON        MOCLDY    36  36  99 CALM      30.08F FOG
NEW BERN       MOCLDY    39  36  89 CALM      30.10S
RICHLANDS      PTCLDY    37  34  87 CALM      30.08F
ROCKY MOUNT    CLOUDY    39  37  92 S3        30.07F
WASHINGTON     CLOUDY    36  35  96 CALM      30.09R
WHITEVILLE     PTCLDY    40  39  96 CALM      30.06F

$$

AMZ130-135-150-152-154-156-158-170-250-252-270-ANZ085-086-088-633-658-670-271000-
MARINE OBSERVATIONS

STATION/POSITION TIME  TEMP    WIND        PRES    WAVE   SWELL
                       AIR SEA DIR/SP/G            HT/PER HT/PER
                 (UTC) (F)     (DEG/KT/KT) (MB)    (FT/S) (FT/S)
CHESAPEAKE LIGHT 0800   44     320/ 15/ 17 1017.6
64 E VA BEACH    0900   46 60  300/ 14/ 19 1016.5    9/ 9   8/ 9
DUCK             0900   41 54  260/  3/  4 1016.9
2 E DUCK         0900      57                N/A     5/10   2/11
10 NE DUCK       0900      59                N/A     6/10   2/11
OREGON INLET     0900   42 56  290/  6/  8 1018.3
13E OREGON INLT  0900      62                N/A     7/10   2/11
HATTERAS CG      0900   43 60  320/  7/ 10 1019.1
DIAMOND BUOY     0900   48     280/ 12/ 16 1018.7    8/ 9   7/ 9
17 S OCRACOKE    NOT AVBL
CAPE LOOKOUT     0800   44      CALM  /  1 1019.0
BEAUFORT LAB     0900   42 58   80/  2/  3 1017.8
30 SE NEW RIVER  0900   50 65  170/  2/  4 1019.4    3/ 8   3/ 8
5 SE WRIGHTSVLE  0800   46 59  160/  4/  6 1018.7
225 S CAPE HAT   0821   66 73  300/ 16/ 19 1019.2   10/ 8   8/ 8
41 SE CHARLESTON 0900   61 73  270/ 17/ 23 1019.1    5/ 5   2/ 9

$$



USA.gov is the U.S. government's official web portal to all federal, state and local government web resources and services.